Lid_Strength_Index
14 17 19 18 17 17 17 18 19 17 15 16 17 17 16 15 15 16 15 15 15 13 12 11 10 9 8 7 7 7 8 7 7 7 7 7 6 4 4 3 2 2 1 -0
16 19 16 14 15 16 17 18 19 17 15 15 17 17 16 15 15 15 15 16 15 14 12 11 10 9 8 8 7 8 8 7 7 6 5 5 6 4 3 3 2 1 -0 -0
18 16 14 15 16 16 17 18 18 18 16 16 18 18 17 15 15 14 15 15 15 15 14 12 11 10 9 8 8 8 8 8 7 5 3 3 4 4 4 4 3 1 0 0
16 14 15 16 16 17 18 16 16 16 19 22 17 23 18 17 16 15 16 16 16 15 13 12 11 11 9 9 8 8 8 7 6 5 3 4 4 6 4 2 1 2 2 1
18 16 16 16 16 15 17 15 16 16 18 21 20 22 21 17 17 17 16 16 16 15 14 12 11 11 9 8 9 8 8 8 7 5 5 5 5 4 5 4 4 4 4 5
18 15 16 16 15 15 14 15 16 18 19 24 20 22 21 20 18 17 17 17 16 15 14 13 11 11 10 9 9 9 8 8 7 6 6 6 7 7 7 7 6 6 8 7
19 19 17 16 17 15 16 18 22 24 23 23 19 22 18 17 16 16 17 17 16 15 15 14 12 12 11 10 10 10 9 9 8 7 6 7 7 7 7 7 8 8 8 9
22 23 18 16 18 19 18 19 22 27 26 23 19 22 18 16 15 16 16 17 16 16 15 15 13 13 12 11 11 10 10 10 10 9 8 7 7 7 7 7 8 9 9 9
23 22 18 17 16 18 19 20 18 22 29 25 22 19 17 16 17 16 16 17 17 17 15 15 14 14 14 12 11 11 11 11 10 10 10 10 9 9 9 9 9 9 9 9
19 22 20 18 17 17 19 17 21 22 28 29 24 22 20 18 18 16 17 18 16 17 16 15 15 14 14 13 12 11 11 11 10 10 10 10 11 10 11 11 11 11 10 10
19 20 21 19 19 20 19 20 19 20 21 25 27 22 18 17 17 17 17 17 16 16 16 16 15 15 14 14 13 12 12 11 11 11 11 12 11 12 12 12 12 12 11 11
17 20 23 21 20 18 18 19 19 23 23 22 22 23 17 17 16 16 17 17 16 15 16 16 15 15 15 14 14 13 13 12 11 10 11 10 10 10 11 11 11 11 12 11
17 22 26 24 21 20 20 19 19 20 20 22 23 22 17 17 17 16 17 17 16 16 16 15 15 15 15 15 14 14 14 13 12 12 11 11 11 11 11 11 10 10 10 10
15 19 20 23 22 20 21 20 19 20 23 22 22 21 19 18 18 17 17 17 16 16 15 16 15 15 15 15 15 15 15 15 14 13 13 13 13 12 12 11 12 12 11 11
17 21 20 20 20 20 20 20 19 20 19 22 21 20 18 17 17 15 15 17 16 16 16 16 15 15 15 15 16 16 16 15 15 15 14 14 13 12 12 12 12 12 12 12
19 23 22 24 21 20 21 20 19 19 19 19 19 20 16 15 16 15 16 16 15 15 15 15 15 14 14 15 16 16 16 16 15 16 15 14 14 13 13 13 13 13 13 13
20 23 25 27 23 23 26 22 20 19 18 18 20 17 17 17 16 15 15 15 15 15 15 14 14 14 14 15 16 17 17 16 16 16 15 15 14 14 14 13 13 13 14 13
22 24 28 29 27 28 19 20 19 19 18 16 17 17 16 16 15 14 13 15 14 14 14 14 14 14 14 16 17 17 16 16 16 16 16 16 15 15 14 14 13 13 14 14
19 21 29 27 32 23 19 21 20 20 20 17 16 16 17 17 17 17 13 13 13 13 14 13 13 14 15 17 17 17 17 16 16 16 16 16 15 15 14 14 14 13 13 13
18 20 22 33 30 30 21 19 18 18 21 17 16 15 18 16 19 16 14 13 13 13 13 13 13 15 16 17 17 17 17 17 17 16 15 15 15 15 15 15 14 12 12 13
26 27 26 33 30 25 20 18 18 23 19 18 17 16 17 17 15 15 13 13 13 13 13 13 15 15 16 17 17 17 17 17 16 16 16 16 16 15 15 15 14 13 13 13
22 24 28 32 31 26 19 18 20 18 17 17 17 16 16 16 16 15 15 14 14 13 12 14 15 15 16 16 16 17 18 17 17 17 17 18 18 17 16 17 14 14 14 14
21 19 21 20 21 17 17 17 16 16 17 17 17 16 15 17 16 15 15 15 14 13 13 14 16 16 17 17 17 17 18 18 18 20 21 21 20 18 18 18 16 16 15 15
20 18 21 20 17 17 17 16 16 16 16 15 15 15 15 16 16 16 16 15 14 13 13 14 16 17 18 19 18 19 19 19 22 23 22 21 21 20 20 18 17 16 15 13
19 18 20 20 17 17 16 16 16 16 15 15 16 16 15 15 16 16 15 14 13 13 13 15 16 17 17 19 20 22 21 21 21 22 23 23 22 24 22 20 20 17 15 12
19 19 18 19 16 15 15 15 15 16 15 16 16 16 16 15 15 15 15 14 14 13 14 16 17 17 19 20 21 23 23 21 21 22 22 23 24 25 23 22 21 15 13 11